DW3588 Weather Reports


Display with metric or nautical units.
time (UTC)temp
F
wind
direction
speed
MPH
gust
MPH
rain 1hr
in
rain 24hr
in
rain mn
in
humidity
%
barometer
mb
20260510070744 65 192 1.0 3.0 0.00 0.00 0.00 61 1011.2
20260510070241 65 192 1.0 3.0 0.00 0.00 0.00 61 1011.2
20260510065739 65 192 1.0 3.0 0.00 0.00 0.00 60 1011.2
20260510065239 65 192 1.0 3.0 0.00 0.00 0.00 60 1011.2
20260510064733 65 192 1.0 3.0 0.00 0.00 0.00 59 1011.2
20260510064232 65 192 2.0 4.0 0.00 0.00 0.00 59 1011.2
20260510063731 65 192 3.0 4.0 0.00 0.00 0.00 58 1011.2
20260510063230 66 196 2.0 4.0 0.00 0.00 0.00 57 1011.2
20260510062723 66 198 2.0 4.0 0.00 0.00 0.00 56 1011.2
20260510062221 66 198 2.0 4.0 0.00 0.00 0.00 57 1011.1
20260510061720 66 198 2.0 4.0 0.00 0.00 0.00 58 1011.2
20260510061217 66 197 2.0 4.0 0.00 0.00 0.00 57 1011.2
20260510060716 66 197 2.0 4.0 0.00 0.00 0.00 57 1011.3
20260510060215 67 198 2.0 4.0 0.00 0.00 0.00 57 1011.3
20260510055714 67 197 2.0 4.0 0.00 0.00 0.00 56 1011.3
20260510055434 67 196 2.0 4.0 0.00 0.00 0.00 56 1011.3
20260510054713 67 196 2.0 4.0 0.00 0.00 0.00 55 1011.3
20260510054211 67 195 2.0 4.0 0.00 0.00 0.00 56 1011.3
20260510053937 67 194 1.0 4.0 0.00 0.00 0.00 55 1011.3
20260510053209 68 197 0.0 2.0 0.00 0.00 0.00 53 1011.3
20260510052710 68 197 1.0 3.0 0.00 0.00 0.00 54 1011.3
20260510052207 68 197 1.0 3.0 0.00 0.00 0.00 55 1011.3
20260510051707 68 196 1.0 2.0 0.00 0.00 0.00 55 1011.3
20260510051200 68 197 1.0 3.0 0.00 0.00 0.00 55 1011.4
20260510050656 68 197 1.0 3.0 0.00 0.00 0.00 54 1011.3
20260510050155 68 197 2.0 3.0 0.00 0.00 0.00 54 1011.3
20260510045919 68 198 2.0 3.0 0.00 0.00 0.00 54 1011.3
20260510045153 69 198 1.0 3.0 0.00 0.00 0.00 54 1011.3
20260510044921 69 198 1.0 3.0 0.00 0.00 0.00 54 1011.2
20260510044149 69 199 1.0 3.0 0.00 0.00 0.00 52 1011.2
20260510043649 69 199 1.0 3.0 0.00 0.00 0.00 53 1011.2
20260510043413 69 200 1.0 3.0 0.00 0.00 0.00 54 1011.2
20260510042908 69 200 1.0 3.0 0.00 0.00 0.00 54 1011.2
20260510042141 69 200 1.0 3.0 0.00 0.00 0.00 54 1011.1
20260510041901 70 200 1.0 3.0 0.00 0.00 0.00 54 1011.1
20260510041138 70 224 1.0 2.0 0.00 0.00 0.00 54 1011.0
20260510040639 71 225 0.0 2.0 0.00 0.00 0.00 54 1011.0
20260510040138 71 225 0.0 1.0 0.00 0.00 0.00 53 1011.0
20260510035635 71 225 0.0 1.0 0.00 0.00 0.00 54 1011.0
20260510035136 71 225 0.0 0.0 0.00 0.00 0.00 54 1010.9
20260510034629 71 225 0.0 1.0 0.00 0.00 0.00 54 1010.8
20260510034127 71 225 1.0 2.0 0.00 0.00 0.00 54 1010.8
20260510033625 72 225 1.0 2.0 0.00 0.00 0.00 53 1010.7
20260510033125 73 232 0.0 2.0 0.00 0.00 0.00 52 1010.8
20260510032845 74 237 0.0 3.0 0.00 0.00 0.00 50 1010.7
20260510032120 74 237 0.0 5.0 0.00 0.00 0.00 49 1010.7
20260510031618 75 236 1.0 5.0 0.00 0.00 0.00 49 1010.6
20260510031117 75 236 1.0 5.0 0.00 0.00 0.00 48 1010.5
20260510030618 76 236 2.0 5.0 0.00 0.00 0.00 47 1010.5
20260510030117 76 246 1.0 4.0 0.00 0.00 0.00 48 1010.6
20260510025617 76 244 1.0 3.0 0.00 0.00 0.00 49 1010.5
20260510025332 76 215 1.0 4.0 0.00 0.00 0.00 48 1010.5
20260510024613 77 215 2.0 5.0 0.00 0.00 0.00 48 1010.5
20260510024113 77 184 3.0 6.0 0.00 0.00 0.00 47 1010.4
20260510023611 78 206 3.0 6.0 0.00 0.00 0.00 46 1010.4
20260510023111 80 180 3.0 9.0 0.00 0.00 0.00 45 1010.4
20260510022605 80 261 4.0 9.0 0.00 0.00 0.00 43 1010.4
20260510022105 81 225 4.0 8.0 0.00 0.00 0.00 43 1010.3
20260510021559 81 257 3.0 8.0 0.00 0.00 0.00 43 1010.3
20260510021317 82 264 3.0 7.0 0.00 0.00 0.00 43 1010.3
20260510020816 82 243 3.0 7.0 0.00 0.00 0.00 42 1010.3
20260510020057 82 254 4.0 9.0 0.00 0.00 0.00 43 1010.4
20260510015814 83 249 5.0 9.0 0.00 0.00 0.00 43 1010.4
20260510015055 83 277 5.0 9.0 0.00 0.00 0.00 43 1010.3
20260510014553 83 238 4.0 9.0 0.00 0.00 0.00 42 1010.3
20260510014052 83 243 5.0 12.0 0.00 0.00 0.00 43 1010.3
20260510013816 83 263 6.0 12.0 0.00 0.00 0.00 43 1010.3
20260510013048 83 234 7.0 14.0 0.00 0.00 0.00 43 1010.4
20260510012550 83 254 8.0 14.0 0.00 0.00 0.00 43 1010.5
20260510012319 84 242 8.0 14.0 0.00 0.00 0.00 42 1010.5
20260510011809 84 267 7.0 14.0 0.00 0.00 0.00 42 1010.5
20260510011047 85 277 6.0 12.0 0.00 0.00 0.00 42 1010.5
20260510010541 85 259 7.0 12.0 0.00 0.00 0.00 42 1010.4
20260510010041 85 265 7.0 14.0 0.00 0.00 0.00 41 1010.4
20260510005538 86 250 6.0 14.0 0.00 0.00 0.00 41 1010.4
20260510005039 86 275 7.0 13.0 0.00 0.00 0.00 41 1010.5
20260510004538 87 220 7.0 13.0 0.00 0.00 0.00 40 1010.5
20260510004037 87 275 7.0 13.0 0.00 0.00 0.00 40 1010.5
20260510003536 87 227 7.0 13.0 0.00 0.00 0.00 40 1010.4
20260510003256 88 271 7.0 12.0 0.00 0.00 0.00 40 1010.5
20260510002534 88 235 6.0 12.0 0.00 0.00 0.00 39 1010.4
20260510002033 89 290 5.0 11.0 0.00 0.00 0.00 40 1010.4
20260510001531 89 306 5.0 11.0 0.00 0.00 0.00 40 1010.3
20260510001030 89 214 5.0 12.0 0.00 0.00 0.00 40 1010.3
20260510000530 89 281 6.0 12.0 0.00 0.00 0.00 40 1010.4
20260510000243 89 227 6.0 11.0 0.00 0.00 0.00 40 1010.4
20260509235525 89 223 6.0 12.0 0.00 0.00 0.00 40 1010.4
20260509235021 89 203 7.0 13.0 0.00 0.00 0.00 39 1010.5
20260509234521 90 240 7.0 13.0 0.00 0.00 0.00 39 1010.4
20260509234021 90 274 7.0 13.0 0.00 0.00 0.00 39 1010.4
20260509233516 91 225 7.0 13.0 0.00 0.00 0.00 38 1010.4
20260509233015 91 270 6.0 12.0 0.00 0.00 0.00 38 1010.5
20260509232515 91 213 6.0 12.0 0.00 0.00 0.00 38 1010.4
20260509232015 91 211 7.0 13.0 0.00 0.00 0.00 38 1010.4
20260509231742 92 261 6.0 13.0 0.00 0.00 0.00 38 1010.5
20260509231015 92 273 5.0 12.0 0.00 0.00 0.00 38 1010.5
20260509230511 91 275 5.0 12.0 0.00 0.00 0.00 37 1010.5
20260509230233 92 336 5.0 11.0 0.00 0.00 0.00 36 1010.6
20260509225512 92 334 6.0 11.0 0.00 0.00 0.00 36 1010.6
20260509225012 92 271 6.0 12.0 0.00 0.00 0.00 37 1010.7
20260509224510 92 231 7.0 15.0 0.00 0.00 0.00 36 1010.6
20260509224009 92 278 6.0 15.0 0.00 0.00 0.00 36 1010.7
20260509223507 93 286 5.0 12.0 0.00 0.00 0.00 36 1010.8
20260509223007 93 342 5.0 12.0 0.00 0.00 0.00 35 1010.9
20260509222507 93 250 5.0 11.0 0.00 0.00 0.00 35 1010.9
20260509222007 94 297 5.0 9.0 0.00 0.00 0.00 34 1011.0
20260509221507 93 319 3.0 9.0 0.00 0.00 0.00 34 1011.0
20260509221005 92 294 3.0 11.0 0.00 0.00 0.00 33 1011.0
20260509220732 93 257 4.0 11.0 0.00 0.00 0.00 33 1011.0
20260509220004 93 274 4.0 12.0 0.00 0.00 0.00 32 1011.0
20260509215502 93 250 5.0 13.0 0.00 0.00 0.00 36 1011.1
20260509215001 92 5 5.0 13.0 0.00 0.00 0.00 35 1011.0
20260509214455 91 65 5.0 16.0 0.00 0.00 0.00 34 1011.2
20260509213954 91 102 5.0 16.0 0.00 0.00 0.00 34 1011.2
20260509213453 90 81 4.0 9.0 0.00 0.00 0.00 38 1011.3
20260509212953 90 77 4.0 11.0 0.00 0.00 0.00 38 1011.4
20260509212445 91 44 5.0 12.0 0.00 0.00 0.00 36 1011.5
20260509212422 90 19 5.0 12.0 0.00 0.00 0.00 37 1011.6
20260509211441 91 42 5.0 10.0 0.00 0.00 0.00 36 1011.7
20260509210937 91 328 5.0 10.0 0.00 0.00 0.00 35 1011.8
20260509210437 91 355 6.0 12.0 0.00 0.00 0.00 36 1011.8
20260509205937 90 344 6.0 12.0 0.00 0.00 0.00 36 1011.9
20260509205434 91 355 6.0 11.0 0.00 0.00 0.00 35 1011.9
20260509204934 90 33 4.0 11.0 0.00 0.00 0.00 36 1012.0
20260509204432 90 337 4.0 9.0 0.00 0.00 0.00 35 1012.0
20260509203932 91 355 4.0 9.0 0.00 0.00 0.00 34 1012.0
20260509203430 91 51 3.0 9.0 0.00 0.00 0.00 34 1012.1
20260509202929 90 350 4.0 9.0 0.00 0.00 0.00 33 1012.2
20260509202429 89 63 4.0 10.0 0.00 0.00 0.00 34 1012.3
20260509202153 89 37 4.0 10.0 0.00 0.00 0.00 34 1012.3
20260509201648 89 54 4.0 11.0 0.00 0.00 0.00 35 1012.3
20260509200928 89 349 4.0 11.0 0.00 0.00 0.00 33 1012.4
20260509200427 89 5 5.0 10.0 0.00 0.00 0.00 32 1012.4
20260509195925 89 16 4.0 10.0 0.00 0.00 0.00 32 1012.6
20260509195425 89 78 4.0 11.0 0.00 0.00 0.00 32 1012.6
20260509194924 89 355 5.0 11.0 0.00 0.00 0.00 33 1012.7
20260509194423 88 333 4.0 11.0 0.00 0.00 0.00 31 1012.7
20260509193921 88 64 4.0 11.0 0.00 0.00 0.00 32 1012.8
20260509193419 88 339 4.0 9.0 0.00 0.00 0.00 32 1012.8
20260509192918 88 0 4.0 9.0 0.00 0.00 0.00 34 1012.9
20260509192411 87 343 5.0 11.0 0.00 0.00 0.00 33 1012.9
20260509192131 87 5 6.0 11.0 0.00 0.00 0.00 32 1013.0
20260509191410 88 333 4.0 11.0 0.00 0.00 0.00 33 1013.1
20260509190911 87 355 4.0 10.0 0.00 0.00 0.00 34 1013.1
20260509190409 87 355 4.0 10.0 0.00 0.00 0.00 35 1013.2
20260509185910 87 355 4.0 11.0 0.00 0.00 0.00 35 1013.2
20260509185408 87 10 4.0 12.0 0.00 0.00 0.00 36 1013.3
20260509185131 87 340 4.0 12.0 0.00 0.00 0.00 37 1013.3
20260509184405 86 302 4.0 8.0 0.00 0.00 0.00 39 1013.3
20260509184123 85 347 4.0 9.0 0.00 0.00 0.00 40 1013.4
20260509183402 85 14 4.0 9.0 0.00 0.00 0.00 39 1013.4
20260509182903 85 348 3.0 6.0 0.00 0.00 0.00 41 1013.4
20260509182402 85 71 2.0 6.0 0.00 0.00 0.00 41 1013.4
20260509181855 84 64 2.0 5.0 0.00 0.00 0.00 42 1013.4
20260509181609 84 78 3.0 9.0 0.00 0.00 0.00 42 1013.5
20260509180851 84 92 3.0 9.0 0.00 0.00 0.00 43 1013.6
20260509180349 83 92 2.0 6.0 0.00 0.00 0.00 43 1013.6
20260509175847 83 0 2.0 5.0 0.00 0.00 0.00 43 1013.7
20260509175603 82 333 2.0 6.0 0.00 0.00 0.00 43 1013.7
20260509174840 82 296 3.0 8.0 0.00 0.00 0.00 44 1013.7
20260509174340 81 315 3.0 8.0 0.00 0.00 0.00 44 1013.6
20260509173838 81 355 3.0 5.0 0.00 0.00 0.00 44 1013.7
20260509173607 81 326 2.0 5.0 0.00 0.00 0.00 46 1013.6
20260509172837 80 59 2.0 5.0 0.00 0.00 0.00 47 1013.6
20260509172559 80 76 2.0 5.0 0.00 0.00 0.00 48 1013.6
20260509171835 79 36 2.0 5.0 0.00 0.00 0.00 47 1013.6
20260509171553 79 283 1.0 4.0 0.00 0.00 0.00 49 1013.7
20260509170830 77 343 1.0 4.0 0.00 0.00 0.00 51 1013.7
20260509170331 76 343 2.0 6.0 0.00 0.00 0.00 50 1013.7
20260509165830 75 338 2.0 6.0 0.00 0.00 0.00 53 1013.8
20260509165330 75 296 2.0 6.0 0.00 0.00 0.00 52 1013.8
20260509164830 74 13 2.0 6.0 0.00 0.00 0.00 54 1013.9
20260509164329 74 43 2.0 5.0 0.00 0.00 0.00 54 1013.9
20260509163830 73 49 2.0 4.0 0.00 0.00 0.00 54 1013.9
20260509163816 73 46 1.0 4.0 0.00 0.00 0.00 55 1013.9
20260509162829 72 355 2.0 4.0 0.00 0.00 0.00 56 1013.9
20260509162327 71 28 2.0 4.0 0.00 0.00 0.00 57 1013.8
20260509161822 69 57 2.0 4.0 0.00 0.00 0.00 60 1013.8
20260509161545 69 17 2.0 4.0 0.00 0.00 0.00 60 1013.9
20260509160822 68 0 2.0 4.0 0.00 0.00 0.00 61 1013.9
20260509160322 68 344 2.0 4.0 0.00 0.00 0.00 61 1014.0
20260509155822 67 349 2.0 4.0 0.00 0.00 0.00 62 1013.9
20260509155323 67 336 1.0 3.0 0.00 0.00 0.00 63 1014.0
20260509154821 66 333 1.0 4.0 0.00 0.00 0.00 64 1013.9
20260509154320 66 12 1.0 4.0 0.00 0.00 0.00 64 1013.9
20260509153822 65 325 1.0 4.0 0.00 0.00 0.00 64 1013.9
20260509153321 65 355 1.0 3.0 0.00 0.00 0.00 66 1013.9
20260509152819 65 0 2.0 4.0 0.00 0.00 0.00 66 1013.9
20260509152320 64 5 2.0 5.0 0.00 0.00 0.00 68 1013.9
20260509152041 64 349 2.0 5.0 0.00 0.00 0.00 69 1013.9
20260509151317 63 14 2.0 5.0 0.00 0.00 0.00 70 1013.9
20260509150816 63 355 2.0 5.0 0.00 0.00 0.00 71 1013.8
20260509150316 62 212 2.0 5.0 0.00 0.00 0.00 71 1013.8
20260509145814 61 216 1.0 4.0 0.00 0.00 0.00 73 1013.7
20260509145314 60 219 2.0 5.0 0.00 0.00 0.00 73 1013.7
20260509145035 60 221 2.0 5.0 0.00 0.00 0.00 74 1013.7
20260509144310 60 200 3.0 5.0 0.00 0.00 0.00 75 1013.6
20260509144028 59 229 3.0 6.0 0.00 0.00 0.00 75 1013.6
20260509143308 59 220 3.0 6.0 0.00 0.00 0.00 75 1013.6
20260509143252 58 219 3.0 6.0 0.00 0.00 0.00 75 1013.6
20260509142307 58 208 2.0 4.0 0.00 0.00 0.00 75 1013.6
20260509141807 58 206 1.0 4.0 0.00 0.00 0.00 75 1013.7
20260509141305 58 215 1.0 3.0 0.00 0.00 0.00 75 1013.7
20260509140806 58 222 1.0 3.0 0.00 0.00 0.00 75 1013.7
20260509140307 57 225 1.0 3.0 0.00 0.00 0.00 75 1013.7
20260509135805 57 225 1.0 2.0 0.00 0.00 0.00 74 1013.8
20260509135306 57 225 0.0 2.0 0.00 0.00 0.00 74 1013.7
20260509135020 57 225 0.0 2.0 0.00 0.00 0.00 74 1013.8
20260509134301 57 225 0.0 3.0 0.00 0.00 0.00 74 1013.8
20260509133759 57 225 2.0 4.0 0.00 0.00 0.00 74 1013.7
20260509133252 57 225 2.0 4.0 0.00 0.00 0.00 74 1013.6
20260509132750 57 230 2.0 4.0 0.00 0.00 0.00 73 1013.6
20260509132249 57 233 2.0 4.0 0.00 0.00 0.00 73 1013.6
20260509131748 57 236 1.0 3.0 0.00 0.00 0.00 72 1013.5
20260509131248 58 238 1.0 3.0 0.00 0.00 0.00 72 1013.5
20260509130747 58 238 1.0 3.0 0.00 0.00 0.00 72 1013.4
20260509130248 58 238 2.0 3.0 0.00 0.00 0.00 72 1013.4
20260509125748 58 240 2.0 3.0 0.00 0.00 0.00 72 1013.3
20260509125248 58 241 2.0 4.0 0.00 0.00 0.00 72 1013.2
20260509124746 58 244 2.0 4.0 0.00 0.00 0.00 71 1013.2
20260509124246 58 255 2.0 4.0 0.00 0.00 0.00 71 1013.2
20260509123745 58 258 1.0 4.0 0.00 0.00 0.00 71 1013.3
20260509123245 58 258 1.0 4.0 0.00 0.00 0.00 70 1013.2
20260509122728 58 259 2.0 4.0 0.00 0.00 0.00 70 1013.2
20260509122455 58 261 1.0 4.0 0.00 0.00 0.00 69 1013.3
20260509121721 59 265 0.0 3.0 0.00 0.00 0.00 69 1013.3
20260509121218 59 265 0.0 2.0 0.00 0.00 0.00 69 1013.2
20260509120717 59 265 0.0 2.0 0.00 0.00 0.00 69 1013.2
20260509120218 59 265 0.0 2.0 0.00 0.00 0.00 69 1013.2
20260509115718 59 265 1.0 4.0 0.00 0.00 0.00 68 1013.2
20260509115218 59 265 2.0 4.0 0.00 0.00 0.00 68 1013.2
20260509114716 59 265 2.0 3.0 0.00 0.00 0.00 69 1013.2
20260509114438 59 265 2.0 4.0 0.00 0.00 0.00 69 1013.1
20260509113716 59 265 2.0 5.0 0.00 0.00 0.00 69 1013.2
20260509113216 58 252 1.0 5.0 0.00 0.00 0.00 69 1013.1
20260509112937 59 232 0.0 3.0 0.00 0.00 0.00 69 1013.2
20260509112213 59 232 1.0 3.0 0.00 0.00 0.00 69 1013.2
20260509111714 59 232 1.0 2.0 0.00 0.00 0.00 67 1013.2
20260509111210 60 232 1.0 4.0 0.00 0.00 0.00 67 1013.1
20260509110710 60 232 2.0 4.0 0.00 0.00 0.00 67 1013.1
20260509110208 60 230 1.0 3.0 0.00 0.00 0.00 67 1013.1
20260509105710 60 232 1.0 4.0 0.00 0.00 0.00 66 1013.1
20260509105209 60 232 1.0 4.0 0.00 0.00 0.00 66 1013.1
20260509104707 60 242 1.0 3.0 0.00 0.00 0.00 65 1013.1
20260509104204 61 242 1.0 3.0 0.00 0.00 0.00 64 1013.1
20260509103927 61 242 2.0 7.0 0.00 0.00 0.00 64 1013.1
20260509103203 61 244 3.0 7.0 0.00 0.00 0.00 64 1013.1
20260509102700 61 232 3.0 5.0 0.00 0.00 0.00 63 1013.0
20260509102157 62 244 2.0 6.0 0.00 0.00 0.00 63 1013.1
20260509101656 62 265 3.0 7.0 0.00 0.00 0.00 63 1013.1
20260509101153 62 273 5.0 10.0 0.00 0.00 0.00 62 1013.1
20260509100653 62 273 5.0 10.0 0.00 0.00 0.00 62 1013.1
20260509100144 62 257 4.0 9.0 0.00 0.00 0.00 61 1013.2
20260509095642 62 246 3.0 7.0 0.00 0.00 0.00 61 1013.2
20260509095627 62 283 5.0 8.0 0.00 0.00 0.00 61 1013.2
20260509094638 62 265 5.0 8.0 0.00 0.00 0.00 61 1013.2
20260509094422 62 276 4.0 8.0 0.00 0.00 0.00 61 1013.2
20260509093638 62 261 3.0 8.0 0.00 0.00 0.00 61 1013.2
20260509093135 62 216 3.0 7.0 0.00 0.00 0.00 61 1013.2
20260509092634 63 230 3.0 7.0 0.00 0.00 0.00 60 1013.2
20260509092134 63 245 3.0 7.0 0.00 0.00 0.00 60 1013.2
20260509091633 63 234 3.0 7.0 0.00 0.00 0.00 60 1013.3
20260509091401 63 237 3.0 7.0 0.00 0.00 0.00 60 1013.2
20260509090630 63 232 3.0 6.0 0.00 0.00 0.00 60 1013.2
20260509090127 63 218 4.0 9.0 0.00 0.00 0.00 59 1013.2
20260509085845 63 248 4.0 9.0 0.00 0.00 0.00 59 1013.2
20260509085126 63 243 3.0 9.0 0.00 0.00 0.00 60 1013.2
20260509084852 63 240 3.0 8.0 0.00 0.00 0.00 61 1013.2
20260509084125 63 225 3.0 7.0 0.00 0.00 0.00 61 1013.3
20260509083625 63 234 3.0 7.0 0.00 0.00 0.00 60 1013.3
20260509083123 64 220 5.0 11.0 0.00 0.00 0.00 58 1013.4
20260509082621 64 271 6.0 11.0 0.00 0.00 0.00 58 1013.4
20260509082122 64 260 6.0 11.0 0.00 0.00 0.00 59 1013.5
20260509081621 64 279 5.0 10.0 0.00 0.00 0.00 59 1013.5
20260509081122 64 243 4.0 8.0 0.00 0.00 0.00 60 1013.5
20260509080619 64 256 4.0 8.0 0.00 0.00 0.00 59 1013.5
20260509080117 63 269 4.0 8.0 0.00 0.00 0.00 60 1013.5
20260509075616 64 244 4.0 7.0 0.00 0.00 0.00 60 1013.5
20260509075116 64 249 4.0 8.0 0.00 0.00 0.00 60 1013.5
20260509074616 63 265 4.0 8.0 0.00 0.00 0.00 61 1013.5
20260509074115 63 246 4.0 8.0 0.00 0.00 0.00 61 1013.4
20260509073615 64 239 3.0 7.0 0.00 0.00 0.00 61 1013.5
20260509073112 64 227 4.0 7.0 0.00 0.00 0.00 60 1013.4
20260509072612 64 238 4.0 9.0 0.00 0.00 0.00 60 1013.5
20260509072110 65 241 4.0 9.0 0.00 0.00 0.00 59 1013.5
20260509071610 65 213 3.0 7.0 0.00 0.00 0.00 59 1013.6